Location: Unspecified
(0.0000°N, 0.0000°E)
Time: 19:36:35
(UTC+00:00)

Vanguard 1 - Pass Details

Date: 17 April 2026
Orbit: 654 x 3817 km, 34.2° (Epoch: 18 May)

Event Time Altitude Azimuth Distance (km) Brightness Sun altitude
Rises 22:36:29 0° 268° (W) 6,961 14.7 -66.7°
Reaches altitude 10° 22:41:42 10° 277° (W) 6,302 14.3 -67.9°
Maximum altitude 22:59:47 32° 333° (NNW) 5,252 13.6 -71.7°
Drops below altitude 10° 23:18:36 10° 31° (NNE) 6,431 14.2 -75.2°
Sets 23:24:12 0° 41° (NE) 7,100 14.5 -76.1°
